Regional Weather Roundup
Issued by NWS Jackson, KY

Home | Current Version | Previous Version | Graphics & Text | Print | Product List | Glossary On
Versions: 1 2 3 4 5 6 7 8 9 10 11 12 13 14 15 16 17 18 19 20 21 22 23 24 25 26 27 28 29 30 31 32 33 34 35 36 37 38 39 40 41 42 43 44 45 46 47 48 49 50
000
ASUS43 KJKL 010910
RWRJKL

EAST KENTUCKY HOURLY WEATHER ROUNDUP
NATIONAL WEATHER SERVICE JACKSON KY
500 AM EDT FRI AUG 01 2014

NOTE: "FAIR" INDICATES FEW OR NO CLOUDS BELOW 12,000 FEET WITH
NO SIGNIFICANT WEATHER AND/OR OBSTRUCTIONS TO VISIBILITY.

* THESE REPORTS ARE NOT UNDER NWS QUALITY CONTROL AND MAY NOT
  REPORT WEATHER SUCH AS PRECIPITATION AND FOG.

KYZ079-080-083-085-087-088-110-112-115-119-120-011000
...EASTERN KENTUCKY...

CITY           SKY/WX    TMP DP  RH WIND       PRES   REMARKS
JACKSON        MOCLDY    65  59  81 CALM      30.10S
LONDON         PTCLDY    64  60  87 CALM      30.10R
SOMERSET*      CLEAR     61  61 100 CALM      30.10R
MONTICELLO*    PTCLDY    59  59 100 CALM      30.10S FOG
MIDDLESBORO*   PTCLDY    61  61  99 CALM      30.11S
HARLAN APT*    CLOUDY    61  61 100 MISG      30.12S VSB 1/4
BLACK MTN*       N/A     59  54  82 S1          N/A
PIKEVILLE APT* MOCLDY    64  61  88 CALM      30.11R
BIG SANDY*     PTSUNNY   63  62  97 CALM      30.10R
MOREHEAD APT*    N/A     61  59  94 CALM      30.11S
$$

KYZ035-036-041-042-044-050-067-078-099-011000
...CENTRAL KENTUCKY...

CITY           SKY/WX    TMP DP  RH WIND       PRES   REMARKS
MT STERLING*   PTCLDY    57  57 100 CALM      30.10S
FLEMING/MASON* CLEAR     61  59  94 SE3       30.10S
DANVILLE*      CLEAR     57  55  94 CALM      30.10S
RICHMOND*      MOCLDY    61  57  88 CALM      30.08S
LEXINGTON      CLEAR     62  58  86 CALM      30.09S
FRANKFORT      CLEAR     59  57  93 CALM      30.08S
$$

KYZ091>093-OHZ055-061-077-WVZ005-015-034-035-042-011000
...SOUTHERN OHIO/WEST VIRGINIA...

CITY           SKY/WX    TMP DP  RH WIND       PRES   REMARKS
COVINGTON      CLEAR     63  58  83 CALM      30.09S
COLUMBUS       CLEAR     65  59  81 CALM      30.09S
DAYTON         PTCLDY    63  58  83 NW3       30.10S
WILMINGTON     CLEAR     64  61  90 NE3       30.09S FOG
HUNTINGTON     MOCLDY    61  60  97 CALM      30.08S FOG
CHARLESTON     FOG       62  62 100 CALM      30.09F VSB 1/2
PINEVILLE*     MOCLDY    62  62 100 MISG      30.19S
BECKLEY        MOCLDY    63  56  78 SE9       30.17F
BLUEFIELD      CLOUDY    65  57  75 E7        30.19F
$$

VAZ002-007-008-TNZ017-027-036-066-071-011000
...SOUTHWEST VIRGINIA/EAST TENNESSEE...

CITY           SKY/WX    TMP DP  RH WIND       PRES   REMARKS
WISE*          MOCLDY    63  54  72 CALM      30.16F
JONESVILLE*      N/A     61  61 100 CALM      30.13R
ABINGDON*      CLOUDY    67  59  74 E7        30.14S
BRISTOL        CLOUDY    65  60  84 N3        30.11S
KNOXVILLE      MOCLDY    67  64  90 CALM      30.07
OAK RIDGE      PTCLDY    66  64  93 CALM      30.09S
CROSSVILLE     PTCLDY    62  58  86 CALM      30.11F FOG
NASHVILLE      CLEAR     64  62  93 CALM      30.06S
$$

...KEY TO REMARKS...
VSB - VISIBILITY IN MILES
WCI - WIND CHILL INDEX
HX  - HEAT INDEX

$$



USA.gov is the U.S. government's official web portal to all federal, state and local government web resources and services.